User: anonymous   Login
Location: Caltech
(34.1382°N, 118.1253°W)
Time: 22:09:33
(UTC-07:00)
Language:

KITSAT 1 - Orbit

View from above orbital plane
View from above orbital plane
View from above satellite
View from above satellite

Ground track
Ground track

The orbit data is extracted from the following two-line orbital elements,

1 22077U 92052B   14296.77221137 -.00000046  00000-0  63822-4 0  7385
2 22077 066.0845 192.9312 0002032 182.7486 244.4412 12.86496677 42945
Epoch (UTC): 23 October 2014 18:31:59
Eccentricity: 0.0002032
inclination: 66.0845°
perigee height: 1314 km
apogee height: 1317 km
right ascension of ascending node: 192.9312°
argument of perigee: 182.7486°
revolutions per day: 12.86496677
mean anomaly at epoch: 244.4412°
orbit number at epoch: 4294

The dashed part of the orbit path shows where the satellite is in the earth's shadow,  

DLR